Flag for United Arab Emirates Weather past 2 weeks in Abu Dhabi, Abu Dhabi, United Arab Emirates

Now
93 °F

Passing clouds.


Feels Like: 113 °F
Forecast: 88 / 101 °F
Wind: 6 mph from Southwest

Location: Abu Dhabi Bateen Airport

Current Time: Jul 24, 2014 at 10:32:17 PM

Latest Report: Jul 24, 2014 at 10:00 PM


Visibility: N/A

Pressure: 29.45 "Hg

Humidity: 67%

Dew point: 81 °F

Location of Abu DhabiLocation

Historic Weather in Abu Dhabi — Graph

°F

Abu Dhabi temperature yesterday

Maximum temperature yesterday: 104 °F (at 12:00 PM)
Minimum temperature yesterday: 88 °F (at 7:00 AM)
Average temperature yesterday: 97 °F

Past Weeks' High & Low Weather Summary

 TemperatureHumidityPressure
High109 °F (Jul 18, 1:00 PM)94% (Jul 14, 5:00 AM)29.53 "Hg (Jul 14, 5:00 AM)
Low86 °F (Jul 11, 5:00 AM)15% (Jul 17, 12:00 PM)29.33 "Hg (Jul 17, 5:00 PM)
Average95 °F59%29.43 "Hg
* Reported Jul 9 9:00 PM — Jul 24 9:00 PM, Abu Dhabi, Weather by CustomWeather, © 2014

Note: Actual official high and low records may vary slightly from our data, if they occured in-between our weather recording intervals... More about our weather records

Advertising

Abu Dhabi weather history for previous 24 hours

 ConditionsComfort  
Time TempWeatherWind HumidityBarometerVisibility
9:00 PM
Jul 24
93 °FPassing clouds.5 mph63%29.42 "HgN/A
8:00 PM95 °FPassing clouds.7 mph60%29.42 "HgN/A
7:00 PM95 °FPassing clouds.7 mph60%29.39 "HgN/A
6:00 PM99 °FPassing clouds.8 mph50%29.39 "HgN/A
5:00 PM99 °FPassing clouds.10 mph47%29.39 "HgN/A
4:00 PM100 °FPassing clouds.9 mph40%29.39 "HgN/A
3:00 PM102 °FPassing clouds.9 mph35%29.39 "HgN/A
2:00 PM102 °FSunny.7 mph37%29.39 "Hg10 mi
1:00 PM100 °FPassing clouds.7 mph42%29.42 "HgN/A
12:00 PM100 °FPassing clouds.8 mph45%29.45 "HgN/A
11:00 AM97 °FPassing clouds.7 mph50%29.47 "HgN/A
10:00 AM93 °FPassing clouds.8 mph53%29.47 "HgN/A
9:00 AM91 °FPassing clouds.8 mph56%29.47 "HgN/A
8:00 AM88 °FSunny.6 mph62%29.45 "Hg10 mi
7:00 AM86 °FPassing clouds.7 mph62%29.45 "HgN/A
6:00 AM88 °FSunny.7 mph70%29.45 "Hg10 mi
5:00 AM88 °FPassing clouds.5 mph70%29.45 "HgN/A
4:00 AM88 °FPassing clouds.7 mph70%29.42 "HgN/A
3:00 AM90 °FPassing clouds.7 mph71%29.42 "HgN/A
2:00 AM90 °FPassing clouds.6 mph71%29.45 "HgN/A
1:00 AM91 °FPassing clouds.7 mph63%29.45 "HgN/A
12:00 AM93 °FClear.6 mph53%29.45 "Hg10 mi
11:00 PM
Jul 23
95 °FPassing clouds.7 mph50%29.47 "HgN/A
10:00 PM95 °FPassing clouds.9 mph53%29.47 "HgN/A
Weather by CustomWeather, © 2014

See weather overviewHow to use our weather pages